Orbital Elements at Epoch 2459200.5 (2020-Dec-17.0) TDB
Reference: JPL 18 (heliocentric ecliptic J2000)
Element | Value | Uncertainty (1-sigma) | Units |
e | .1665834601861796 | 5.1077e-08 | |
a | 2.219011966885517 | 1.297e-08 | au |
q | 1.849361275247187 | 1.111e-07 | au |
i | 5.532922797050131 | 5.2376e-06 | deg |
node | 237.1132734825885 | 6.3902e-05 | deg |
peri | 31.41437054957674 | 6.7502e-05 | deg |
M | 272.0235844046688 | 2.5816e-05 | deg |
tp | 2459495.554101615493 (2021-Oct-08.05410162) | 8.7807e-05 | TDB |
period | 1207.36308546781 3.31 | 1.0586e-05 2.898e-08 | d yr |
n | .2981704545493148 | 2.6142e-09 | deg/d |
Q | 2.588662658523846 | 1.5131e-08 | au |
|
| | Orbit Determination Parameters
Additional Information
|